Fayetteville, NC

11:57 AM EST on February 19, 2017 (GMT -0500)
Fayetteville Regional-Grannis

Weather History for KFAY - June, 2013

Change the Weather History Date:

Thursday, June 27, 2013

  Actual Average Record
Temperature  
Mean Temperature 81 °F 80 °F  
Max Temperature 93 °F 90 °F 102 °F (1998)
Min Temperature 69 °F 70 °F 56 °F (1979)
Degree Days  
Heating Degree Days 0 0  
Month to date heating degree days 0 0  
Since 1 June heating degree days 0 0  
Since 1 July heating degree days 2762 2732  
Cooling Degree Days 16 15  
Month to date cooling degree days 347 349  
Year to date cooling degree days 596 633  
Since 1 June cooling degree days 347 349  
Growing Degree Days 31 (Base 50)    
Moisture  
Dew Point 71 °F    
Average Humidity 73    
Maximum Humidity 97    
Minimum Humidity 49    
Precipitation  
Precipitation 0.35 in 0.14 in 3.90 in (1958)
Month to date precipitation 8.15 3.86  
Year to date precipitation 21.49 19.53  
Sea Level Pressure  
Sea Level Pressure 29.83 in    
Wind  
Wind Speed 10 mph (SSW)    
Max Wind Speed 23 mph    
Max Gust Speed 30 mph    
Visibility 8 miles    
Events Rain    
T = Trace of Precipitation, MM = Missing Value Source: NWS Daily Summary

Daily Weather History Graph

Daily Weather History Graph

Search for Another Location

Airport or City:

Trip Planner

Search our weather history database for the weather conditions in past years. The results will help you decide how hot, cold, wet, or windy it might be!

Date:

Astronomy

Jun. 27, 2013 Rise Set
Actual Time 6:03 AM EDT 8:33 PM EDT
Civil Twilight 5:34 AM EDT 9:03 PM EDT
Nautical Twilight 4:57 AM EDT 9:39 PM EDT
Astronomical Twilight 4:16 AM EDT 10:20 PM EDT
Moon 11:42 PM EDT (6/27) 10:51 AM EDT (6/27)
Length of Visible Light 15h 29m
Length of Day
14h 29m
Waning Gibbous, 76% of the Moon is Illuminated
Jun 27
Waning Gibbous
Jun 30
Last Quarter
Jul 8
New
Jul 15
First Quarter
Jul 22
Full

Hourly Weather History & Observations

Time (EDT) Temp. Heat Index Dew Point Humidity Pressure Visibility Wind Dir Wind Speed Gust Speed Precip Events Conditions
12:53 AM 69.1 °F - 68.0 °F 96% 29.91 in 10.0 mi SW 9.2 mph - 0.00 in   Clear
1:53 AM 69.1 °F - 66.9 °F 93% 29.91 in 10.0 mi SSW 9.2 mph - N/A   Clear
2:53 AM 69.1 °F - 66.9 °F 93% 29.91 in 10.0 mi SW 5.8 mph - N/A   Clear
3:53 AM 69.1 °F - 66.9 °F 93% 29.90 in 10.0 mi South 4.6 mph - N/A   Clear
4:53 AM 70.0 °F - 68.0 °F 93% 29.88 in 10.0 mi South 5.8 mph - N/A   Clear
5:43 AM 71.6 °F - 69.8 °F 94% 29.89 in 9.0 mi SSW 6.9 mph - N/A   Scattered Clouds
5:51 AM 71.6 °F - 69.8 °F 94% 29.89 in 8.0 mi SSW 10.4 mph - N/A   Mostly Cloudy
5:53 AM 71.1 °F - 69.1 °F 93% 29.87 in 8.0 mi SSW 9.2 mph - N/A   Mostly Cloudy
6:12 AM 71.6 °F - 69.8 °F 94% 29.89 in 5.0 mi SSW 9.2 mph - N/A   Overcast
6:53 AM 73.0 °F - 71.1 °F 93% 29.88 in 4.0 mi SW 10.4 mph - N/A   Overcast
7:21 AM 73.4 °F - 71.6 °F 94% 29.90 in 4.0 mi SSW 11.5 mph - N/A   Overcast
7:53 AM 75.0 °F - 72.0 °F 90% 29.88 in 5.0 mi SSW 10.4 mph - N/A   Overcast
8:53 AM 77.0 °F - 73.0 °F 88% 29.87 in 8.0 mi SSW 10.4 mph - N/A   Overcast
9:12 AM 78.8 °F - 73.4 °F 83% 29.87 in 9.0 mi SSW 11.5 mph - N/A   Mostly Cloudy
9:32 AM 80.6 °F 85.4 °F 73.4 °F 79% 29.87 in 9.0 mi SSW 11.5 mph - N/A   Scattered Clouds
9:53 AM 81.0 °F 86.2 °F 73.9 °F 79% 29.84 in 9.0 mi SSW 13.8 mph - N/A   Scattered Clouds
10:53 AM 84.9 °F 92.1 °F 73.9 °F 69% 29.84 in 10.0 mi SSW 15.0 mph - N/A   Partly Cloudy
11:53 AM 88.0 °F 96.5 °F 73.9 °F 63% 29.84 in 10.0 mi SW 17.3 mph 21.9 mph N/A   Scattered Clouds
12:53 PM 90.0 °F 99.0 °F 73.9 °F 59% 29.83 in 10.0 mi SSW 13.8 mph 19.6 mph N/A   Scattered Clouds
1:53 PM 91.0 °F 99.3 °F 73.0 °F 55% 29.81 in 10.0 mi SSW 16.1 mph - N/A   Scattered Clouds
2:53 PM 91.9 °F 98.4 °F 71.1 °F 50% 29.77 in 10.0 mi SSW 15.0 mph - N/A   Clear
3:53 PM 93.0 °F 100.1 °F 71.1 °F 49% 29.74 in 10.0 mi SW 13.8 mph 23.0 mph N/A   Clear
4:53 PM 91.0 °F 97.6 °F 71.1 °F 52% 29.73 in 10.0 mi SW 13.8 mph - N/A   Scattered Clouds
5:53 PM 89.1 °F 94.1 °F 70.0 °F 53% 29.72 in 10.0 mi SW 11.5 mph 18.4 mph N/A   Partly Cloudy
6:38 PM 82.4 °F 88.2 °F 73.4 °F 74% 29.77 in 0.8 mi SSW 19.6 mph 29.9 mph 0.18 in Rain Rain
6:51 PM 77.0 °F - 73.4 °F 89% 29.79 in 2.0 mi SW 11.5 mph 28.8 mph 0.35 in Rain Light Rain
6:53 PM 75.9 °F - 73.0 °F 91% 29.77 in 5.0 mi SW 9.2 mph 20.7 mph 0.35 in Rain Light Rain
7:53 PM 75.9 °F - 72.0 °F 87% 29.77 in 10.0 mi SSW 9.2 mph - 0.00 in   Scattered Clouds
8:53 PM 75.0 °F - 72.0 °F 90% 29.76 in 10.0 mi SSW 8.1 mph - N/A   Clear
9:53 PM 73.9 °F - 71.1 °F 91% 29.76 in 10.0 mi SSW 6.9 mph - N/A   Clear
10:53 PM 75.0 °F - 72.0 °F 90% 29.78 in 10.0 mi South 4.6 mph - N/A   Scattered Clouds
11:18 PM 75.2 °F - 73.4 °F 94% 29.80 in 10.0 mi WSW 5.8 mph 16.1 mph N/A   Overcast
11:53 PM 75.0 °F - 72.0 °F 90% 29.75 in 10.0 mi South 3.5 mph - N/A   Overcast